Terug naar catalogus

CZ-3C DEB

LostGTO
NORAD 40832·DEBRIS·🇨🇳 China

Gelanceerd Oct 31, 2010 vanaf Xichang Satellite Launch Center

Loading…

TLE

VerouderdSource: Space-Track

Epoch: Nov 2, 2024, 04:32 UTC

1 40832U 10057AZ  24307.18927890  .00000428  00000-0  37392-2 0  9990
2 40832  19.9495 238.7356 7172897 268.6665  16.1871  2.26618630 79802

Volg CZ-3C DEB in realtime met AllMySat

Download on the App Store